This is the latest recevied weather packets stored in our database for station/object IU2EBF-4. If no packets are shown the sender has not sent any weather packets the latest 10 day(s).
| Time | Temp. | Humidity | Pressure | Rain* | Wind** | Luminosity | Snow |
|---|---|---|---|---|---|---|---|
| 1777734168 | 18.89° C | 46% | 1047 hPa | - | - | - | - |
| 1777733443 | 19.44° C | 47% | 1047 hPa | - | - | - | - |
| 1777732719 | 20° C | 46% | 1048 hPa | - | - | - | - |
| 1777731994 | 20.56° C | 46% | 1048 hPa | - | - | - | - |
| 1777731269 | 21.11° C | 45% | 1048 hPa | - | - | - | - |
| 1777730544 | 21.11° C | 46% | 1048 hPa | - | - | - | - |
| 1777729819 | 21.11° C | 46% | 1048 hPa | - | - | - | - |
| 1777729094 | 22.22° C | 45% | 1048 hPa | - | - | - | - |
| 1777728370 | 21.67° C | 46% | 1048 hPa | - | - | - | - |
| 1777727645 | 21.67° C | 46% | 1048 hPa | - | - | - | - |
| 1777726920 | 22.22° C | 43% | 1048 hPa | - | - | - | - |
| 1777726195 | 22.78° C | 45% | 1048 hPa | - | - | - | - |
| 1777725470 | 23.33° C | 46% | 1048 hPa | - | - | - | - |
| 1777724745 | 22.78° C | 45% | 1048 hPa | - | - | - | - |
| 1777724020 | 22.78° C | 44% | 1049 hPa | - | - | - | - |
| 1777723296 | 22.78° C | 43% | 1049 hPa | - | - | - | - |
| 1777722571 | 23.33° C | 44% | 1049 hPa | - | - | - | - |
| 1777721846 | 22.22° C | 44% | 1049 hPa | - | - | - | - |
| 1777721121 | 22.22° C | 44% | 1049 hPa | - | - | - | - |
| 1777720396 | 21.67° C | 44% | 1049 hPa | - | - | - | - |
| 1777719671 | 21.67° C | 42% | 1049 hPa | - | - | - | - |
| 1777718946 | 23.33° C | 42% | 1049 hPa | - | - | - | - |
| 1777718221 | 23.33° C | 43% | 1049 hPa | - | - | - | - |
| 1777717496 | 22.78° C | 43% | 1049 hPa | - | - | - | - |
| 1777716772 | 23.33° C | 43% | 1049 hPa | - | - | - | - |
* Rain since midnight (hover to see other rain measurements)
** Current wind speed in m/s (hover to see current wind gust speed)